Regional Weather Roundup
Issued by NWS

Home | Current Version | Previous Version | Text Only | Print | Product List | Glossary On
Versions: 1 2 3 4 5 6 7 8 9 10 11 12 13 14 15 16 17 18 19 20 21 22 23 24 25 26 27 28 29 30 31 32 33 34 35 36 37 38 39 40 41 42 43 44 45 46 47 48 49 50
000
ASUS42 KTBW 252110
RWRFL
FLORIDA REGIONAL WEATHER ROUNDUP
NATIONAL WEATHER SERVICE TAMPA BAY RUSKIN FL
500 PM EDT FRI JUL 25 2014

NOTE: "FAIR" INDICATES FEW OR NO CLOUDS BELOW 12,000 FEET WITH NO
SIGNIFICANT WEATHER AND/OR OBSTRUCTIONS TO VISIBILITY.


FLZ001>010-012>015-112-114-115-252200-
PANHANDLE FLORIDA

CITY           SKY/WX    TMP DP  RH WIND       PRES   REMARKS
PENSACOLA      MOSUNNY   86  74  67 SW12      29.95F
PENSACOLA NAS  PTSUNNY   85  80  85 SW15      29.96F HX  99
MILTON NAS     PTSUNNY   90  75  61 SW8       29.95F HX 100
CRESTVIEW      MOSUNNY   87  77  72 S7        29.98F HX  99
DUKE FIELD     PTSUNNY   87  81  80 S8        29.97F HX 104
VALPARAISO     PTSUNNY   88  74  63 W9        29.96F HX  97
MARY ESTHER    PTSUNNY   86  74  67 SW12      29.96F
TRI COUNTY     FAIR      82  77  84 VRB5      29.98F
PANAMA CITY    FAIR      84  78  82 VRB5      29.97F HX  95
TYNDALL AFB    PTSUNNY   84  75  74 SW9       30.00F
APALACHICOLA   MOSUNNY   88  74  63 SW13      30.00F HX  96

STATION/POSITION SKY/WX   TEMP    WIND        PRES    WAVE   SWELL
                          AIR SEA DIR/SP/G            HT/PER HT/PER
                          (F)     (DEG/KT/KT) (MB)    (FT/S) (FT/S)
30.1N   87.6W              83 84  230/ 14/ 16 1015.0F   2/ 4
29.2N   88.2W              85 88  230/ 10/ 12 1016.3F
28.8N   86.0W              84 85  250/ 12/ 14 1016.2F   2/ 4   2/ 9
PANAMA CITY BEAC           82 85  240/ 11/ 15 1015.2F
CAPE SAN BLAS    NOT AVBL
TOWER C                    83     240/ 12/ 13 1016.2F
28.5N   84.5W              85 86  240/ 10/ 10 1016.9F   1/ 7

$$
FLZ011-016>038-118-127-128-134-139-239-252200-
NORTH FLORIDA

CITY           SKY/WX    TMP DP  RH WIND       PRES   REMARKS
MARIANNA       MOSUNNY   86  78  77 SW10      29.97F HX  98
TALLAHASSEE    CLOUDY    82  73  74 SE5       29.99F THUNDER
PERRY          PTSUNNY   86  72  62 SW12      30.01F
CROSS CITY       N/A     91  72  53 SW7       30.01F HX  98
GAINESVILLE    PTSUNNY   90  75  61 W15       30.01F HX 100
MAYPORT NAS    CLOUDY    84  77  79 S10       29.99F
JACKSONVILLE   CLOUDY    83  76  79 S9        29.98F
JAX NAS        CLOUDY    86  75  69 S9        30.01F HX  95
JAX CRAIG      CLOUDY    85  75  72 S6        30.00F
JAX CECIL      SUNNY     82  75  78 S8        30.00F
FERNANDINA BEA FAIR      81  75  83 S6        29.98F
ST AUGUSTINE   CLOUDY    85  74  69 SW12      30.03S

STATION/POSITION SKY/WX   TEMP    WIND        PRES    WAVE   SWELL
                          AIR SEA DIR/SP/G            HT/PER HT/PER
                          (F)     (DEG/KT/KT) (MB)    (FT/S) (FT/S)
SHELL POINT      NOT AVBL
KEATON BEACH               85     230/ 10/ 12 1016.4F
CEDAR KEY                  86     250/  4/  7 1017.6F
FERNANDINA                 79 87  170/  5/  9 1014.9F
30.7N   81.3W                 85                N/A     2/ 3
MAYPORT                    82 87  160/  5/  9   N/A
31.4N   80.9W              84 85  170/ 16/ 17 1014.9F   2/ 3   2/ 7
ST AUGUSTINE               77     220/ 10/ 12 1017.6F

$$
FLZ040-043>046-052-053-057-058-063-144-252200-
INTERIOR CENTRAL FLORIDA

CITY           SKY/WX    TMP DP  RH WIND       PRES   REMARKS
OCALA          TSTM      75  64  69 NE12G18   30.04S
LEESBURG       CLOUDY    84  73  69 VRB3      30.03F
ORLANDO EXEC   CLOUDY    81  76  84 N5        30.03F
ORLANDO INTL   CLOUDY    81  73  76 NW7       30.02F
KISSIMMEE      PTSUNNY   81  73  78 W9        30.04F
WINTER HAVEN   LGT RAIN  79  75  87 CALM      30.04F
LAKELAND       MOSUNNY   82  73  74 CALM      30.03F
BARTOW         PTSUNNY   79  79 100 VRB3      30.03F
OKEECHOBEE     PTSUNNY   86  72  62 MISG      30.03F

$$
FLZ041-047-054-059-064-141-147-252200-
EAST CENTRAL FLORIDA

CITY           SKY/WX    TMP DP  RH WIND       PRES   REMARKS
ORMOND BEACH   TSTM      75  73  94 E7        30.07R
DAYTONA BEACH  TSTM      75  74  96 N6        30.05S FOG
DELAND         CLOUDY    81  77  89 MISG      30.06R
NEW SMYRNA BEA TSTM     N/A N/A N/A E17G24    30.08R
JFK SPACE CTR  MOSUNNY   86  79  79 SE9       30.01F THUNDER HX  99
TITUSVILLE     PTSUNNY   88  77  70 SE14      30.01F HX 100
CAPE CANAVERAL MOSUNNY   88  77  69 SE14G23   30.01F HX 101
PATRICK AFB    PTSUNNY   86  77  73 S18       30.01F HX  97
MELBOURNE      TSTM      84  76  76 SE12      30.02F
VERO BEACH     CLOUDY    86  77  74 SE15      30.03F HX  97
FT PIERCE      PTSUNNY   88  76  67 SE14      30.03F HX  99
STUART         PTSUNNY   88  73  62 E16       30.05S HX  96

STATION/POSITION SKY/WX   TEMP    WIND        PRES    WAVE   SWELL
                          AIR SEA DIR/SP/G            HT/PER HT/PER
                          (F)     (DEG/KT/KT) (MB)    (FT/S) (FT/S)
28.5N   80.2W              84 85  140/ 12/ 14 1017.1F
28.9N   78.5W              84 85  180/  8/ 10 1017.9R   2/ 7   2/ 7
TRIDENT PIER               88 88  130/ 11/ 16 1015.5F
28.4N   80.5W                 86                N/A     2/ 3
27.6N   80.2W                 83                N/A     2/ 8

$$
FLZ050-056-061-142-242-148-248-149-249-151-251-155-255-
160-260-252200-
WEST CENTRAL FLORIDA

CITY           SKY/WX    TMP DP  RH WIND       PRES   REMARKS
CRYSTAL RIVER  MOCLDY    90  73  58 W10       30.02F HX  98
INVERNESS      FAIR      88  72  58 SW7       30.02F
BROOKSVILLE    CLOUDY    88  74  63 W9        30.04F HX  96
ZEPHYRHILLS    FAIR      86  73  66 CALM      30.03F THUNDER
CLEARWATER     MOSUNNY   89  75  63 W10       30.02F HX  99
TAMPA INTL     PTSUNNY   89  74  60 W10       30.02F THUNDER HX  98
TAMPA EXEC     LGT RAIN  79  73  83 N8        30.03F
PLANT CITY     CLOUDY    88  73  62 W7        30.04F HX  96
MACDILL AFB    PTSUNNY   92  78  63 N10G18    30.03F THUNDER HX 107
ST PETERSBURG  PTSUNNY   88  74  63 W12       30.00F HX  96
SARASOTA       PTSUNNY   90  74  59 W12       30.02F HX  99
VENICE         FAIR      90  75  62 SW9       30.04F HX 100

STATION/POSITION SKY/WX   TEMP    WIND        PRES    WAVE   SWELL
                          AIR SEA DIR/SP/G            HT/PER HT/PER
                          (F)     (DEG/KT/KT) (MB)    (FT/S) (FT/S)
CEDAR KEY                  86     250/  4/  7 1017.6F
28.5N   84.5W              85 86  240/ 10/ 10 1016.9F   1/ 7
27.3N   84.3W                 89                N/A     1/ 8
CLEARWATER BEACH           86 89  260/  9/ 11 1016.7F
MIDDLE TAMPA BAY           86     250/ 12/ 14 1017.3F
VENICE                     87 91  230/  8/  9 1017.0F

$$
FLZ066-069-070-075>078-162-262-165-265-252200-
SOUTHWEST FLORIDA AND KEYS

CITY           SKY/WX    TMP DP  RH WIND       PRES   REMARKS
PUNTA GORDA    CLOUDY    90  75  61 W9        30.05F HX 100
FT MYERS       PTSUNNY   91  74  57 W9        30.02F HX 100
SOUTHWEST INTL PTSUNNY   90  73  57 W8        30.02F HX  98
NAPLES         PTSUNNY   89  79  72 SW9       30.03S HX 104
MARATHON       PTSUNNY   92  79  65 E6        30.03F HX 108
KEY WEST NAS   MOSUNNY   89  77  67 SE9       30.03F HX 101
KEY WEST INTL  MOSUNNY   90  75  61 SE8       30.04F HX 100

STATION/POSITION SKY/WX   TEMP    WIND        PRES    WAVE   SWELL
                          AIR SEA DIR/SP/G            HT/PER HT/PER
                          (F)     (DEG/KT/KT) (MB)    (FT/S) (FT/S)
VENICE                     87 91  230/  8/  9 1017.0F
NAPLES                     87 94  250/  9/ 11 1017.4F
DRY TORTUGAS               88      CALM  /  1 1017.1F
SAND KEY                   85     100/  6/  8 1017.1F
SOMBRERO KEY               87     110/  8/  8 1018.3F
LONG KEY                   87 90  110/  6/  7 1018.2F
MOLASSES REEF              85 86  130/  8/  9 1017.5F

$$
FLZ067-068-071>074-168-172>174-252200-
SOUTHEAST FLORIDA

CITY           SKY/WX    TMP DP  RH WIND       PRES   REMARKS
W PALM BEACH   PTSUNNY   89  74  60 SE10      30.03F HX  98
FT LAUDER-EXEC MOSUNNY   89  76  65 SE10G18   30.03F HX 100
FT LAUDERDALE  PTSUNNY   90  76  63 SE3       30.03F HX 101
POMPANO BEACH  SUNNY    N/A N/A N/A MISG      30.04F
PEMBROKE PINES SUNNY     90  75  61 SE13      30.04F HX 100
OPA LOCKA      CLOUDY    89  75  63 SE14      30.04F HX  99
MIAMI          PTSUNNY   88  74  63 SE9       30.04F HX  96
WEST KENDALL   MOSUNNY   92  77  61 SE8       30.03F HX 105
HOMESTEAD      MOSUNNY   89  77  67 SE7       30.03F HX 101

STATION/POSITION SKY/WX   TEMP    WIND        PRES    WAVE   SWELL
                          AIR SEA DIR/SP/G            HT/PER HT/PER
                          (F)     (DEG/KT/KT) (MB)    (FT/S) (FT/S)
PORT EVERGLADES            87     130/  7/ 10 1017.2
VIRGINIA KEY               86 89  100/  6/  8   N/A
LAKE WORTH                 85 85              1016.9F
FOWEY ROCKS                85 88  110/  8/  9 1017.8F
SETTLEMENT POINT           84     160/  7/ 10 1018.3F

$$




USA.gov is the U.S. government's official web portal to all federal, state and local government web resources and services.